Tracking 34138 objects as of 17-May-2026
HD Live streaming from Space Station
objects crossing your sky now

ONEWEB-0060

Track ONEWEB-0060 now!
10-day predictions
ONEWEB-0060 is classified as:


NORAD ID: 45455
Int'l Code: 2020-020AH
Perigee: 1,222.8 km
Apogee: 1,226.8 km
Inclination: 87.9 °
Period: 109.8 minutes
Semi major axis: 7595 km
RCS: Unknown
Launch date: March 21, 2020
Source: United Kingdom (UK)
Launch site: TYURATAM MISSILE AND SPACE COMPLEX (TTMTR)
Your satellite tracking list
Your tracking list is empty




NASA's NSSDC Master Catalog

Two Line Element Set (TLE):
1 45455U 20020AH  26136.96758522 -.00000280  00000-0 -82640-3 0  9994
2 45455  87.8919  27.2764 0002637  63.2559 296.8838 13.11418847298453
Source of the keplerian elements: AFSPC